ABS-2

Last updated on Sun Jun 21 2026 00:03:06 GMT+0000 (Coordinated Universal Time)

1 39508U 14006A 26171.40684536 -.00000090 00000+0 00000+0 0 9997 2 39508 0.0181 333.2577 0003823 99.9811 56.7515 1.00271130 45317
UTC large
Height (km)
Speed (km/s)
/
Latitude / Longitude
Inclination (degrees)
Orbital Period (minutes)
Azimuth
Elevation
Range (km)
Doppler Factor

Next 0 passes for location: London (51.5072 / 0.1276)

No passes found over London.
ABS-2